Probability
0 0 0 0 0 0 0 0 0 0 0 0 0 0 0 0 0 0 0 0 0 0 0 0 0 0 0 0 0 0 0 0 0 0 0 0 0 0 0 0 0 0 0
0 0 0 0 0 0 0 0 0 0 0 0 0 0 0 0 0 0 0 0 0 0 0 0 0 0 0 0 0 0 0 0 0 0 0 0 0 0 0 0 0 0 0
0 0 0 0 0 0 0 0 0 0 0 0 0 0 0 0 0 0 0 0 0 0 0 0 0 0 0 0 0 0 0 0 0 0 0 0 0 0 0 0 0 0 0
0 0 0 0 0 0 0 0 0 0 0 0 0 0 0 0 0 0 0 0 0 0 0 0 0 0 0 0 0 0 0 0 0 0 0 0 0 0 0 0 0 0 0
0 0 0 0 0 0 0 0 0 0 0 0 0 0 0 0 0 0 0 0 0 0 0 0 0 0 0 0 0 0 0 0 0 0 0 0 0 0 0 0 0 0 0
0 0 0 0 0 0 0 0 0 0 0 0 0 0 0 0 0 0 0 0 0 0 0 0 0 0 0 0 0 0 0 0 0 0 0 0 0 0 0 0 0 0 0
0 0 0 0 0 0 0 0 0 0 0 0 0 0 0 0 0 0 0 0 0 0 0 0 0 0 0 0 0 0 0 0 0 0 0 0 0 0 0 0 0 0 0
0 0 0 0 0 0 0 0 0 0 0 0 0 0 0 0 0 0 0 0 0 0 0 0 0 0 0 0 0 0 0 0 0 0 0 0 0 0 0 0 0 0 0
0 0 0 0 0 0 0 0 0 0 0 0 0 0 0 0 0 0 0 0 0 0 0 0 0 0 0 0 0 0 0 0 0 0 0 0 0 0 0 0 0 0 0
0 0 0 0 0 0 0 0 0 0 0 0 0 0 0 0 0 0 0 0 0 0 0 0 0 0 0 0 0 0 0 0 0 0 0 0 0 0 0 0 0 0 0
0 0 0 0 0 0 0 0 0 0 0 0 0 0 0 0 0 0 0 0 0 0 0 0 0 0 0 0 0 0 0 0 0 0 0 0 0 0 0 0 0 0 0
0 0 0 0 0 0 0 0 0 0 0 0 0 0 0 0 0 0 0 0 0 0 0 0 0 0 0 0 0 0 0 0 0 0 0 0 0 0 0 0 0 0 0
0 0 0 0 0 0 0 0 0 0 0 0 0 0 0 0 0 0 0 0 0 0 0 0 0 0 0 0 0 0 0 0 0 0 0 0 0 0 0 0 0 0 0
0 0 0 0 0 0 0 0 0 0 0 0 0 0 0 0 0 0 0 0 0 0 0 0 0 0 0 0 0 0 0 0 0 0 0 0 0 0 0 0 0 0 0
0 0 0 0 0 0 0 0 0 0 0 0 0 0 0 0 0 0 0 0 0 0 0 0 0 0 0 0 0 0 0 0 0 0 0 0 0 0 0 0 0 0 0
0 0 0 0 0 0 0 0 0 0 0 0 0 0 0 0 0 0 0 0 0 0 0 0 0 0 0 0 0 0 0 0 0 0 0 0 0 0 0 0 0 0 0
0 0 0 0 0 0 0 0 0 0 0 0 0 0 0 0 0 0 0 0 0 0 0 0 0 0 0 0 0 0 0 0 0 0 0 0 0 0 0 0 0 0 0
0 0 0 0 0 0 0 0 0 0 0 0 0 0 0 0 0 0 0 0 0 0 0 0 0 0 0 0 0 0 0 0 0 0 0 0 0 0 0 0 0 0 0
0 0 0 0 0 0 0 0 0 0 0 0 0 0 0 0 0 0 0 0 0 0 0 0 0 0 0 0 0 0 0 0 0 0 0 0 0 0 0 0 0 0 0
0 0 0 0 0 0 0 0 0 0 0 0 0 0 0 0 0 0 0 0 0 0 0 0 0 0 0 0 0 0 0 0 0 0 0 0 0 0 0 0 0 0 0
0 0 0 0 0 0 0 0 0 0 0 0 0 0 0 0 0 0 0 0 0 0 0 0 0 0 0 0 0 0 0 0 0 0 0 0 0 0 0 0 0 0 0
0 0 0 0 0 0 0 0 0 0 0 0 0 0 0 0 0 0 0 0 0 0 0 0 0 0 0 0 0 0 0 0 0 0 0 0 0 0 0 0 0 0 0
0 0 0 0 0 0 0 0 0 0 0 0 0 0 0 0 0 0 0 0 0 0 0 0 0 0 0 0 0 0 0 0 0 0 0 0 0 0 0 0 0 0 0
0 0 0 0 0 0 0 0 0 0 0 0 0 0 0 0 0 0 0 0 0 0 0 0 0 0 0 0 0 0 0 0 0 0 0 0 0 0 0 0 0 0 0
0 0 0 0 0 0 0 0 0 0 0 0 0 0 0 0 0 0 0 0 0 0 0 0 0 0 0 0 0 0 0 0 0 0 0 0 0 0 0 0 0 0 0
0 0 0 0 0 0 0 0 0 0 0 0 0 0 0 0 0 0 0 0 0 0 0 0 0 0 0 0 0 0 0 0 0 0 0 0 0 0 0 0 0 0 0
Wind_Speed
9 9 10 10 10 9 10 11 12 14 14 15 15 15 15 15 15 15 16 16 16 17 18 18 18 19 19 19 19 19 19 19 19 19 20 20 20 20 19 17 16 16 20
12 11 11 10 10 10 10 10 11 13 14 15 15 15 15 15 15 15 15 16 16 17 17 17 18 18 18 18 18 18 19 18 18 15 16 18 19 20 20 19 18 15 20
13 12 11 10 11 11 10 10 11 13 14 15 15 15 15 14 14 14 15 15 16 17 17 17 17 17 17 17 17 18 18 17 15 12 12 14 16 19 20 19 19 19 19
13 11 11 11 11 11 10 10 11 13 14 15 15 14 14 14 14 14 14 14 15 16 16 16 16 16 16 16 17 17 17 16 13 9 11 12 13 18 19 19 19 18 18
12 11 11 10 12 11 11 10 11 13 14 15 15 14 14 13 13 13 13 14 15 15 16 15 15 15 16 16 16 16 16 15 10 11 12 12 12 17 18 18 18 17 17
12 11 12 11 12 12 11 11 11 13 14 15 14 14 13 13 13 13 13 13 14 14 15 14 15 15 15 15 15 14 14 11 9 10 10 11 11 15 16 16 16 16 16
12 11 12 10 10 11 11 11 11 12 14 14 14 13 13 12 12 12 12 12 13 14 14 14 14 14 14 14 14 14 12 8 9 10 9 10 12 14 14 14 14 15 15
12 11 11 10 9 9 9 9 10 12 13 13 13 13 12 12 11 11 11 12 12 13 13 13 13 13 13 13 13 12 10 6 9 9 9 10 12 12 13 13 13 13 13
11 10 10 11 10 8 8 8 9 9 11 12 12 12 11 10 10 10 10 11 12 12 12 12 12 12 12 12 12 11 9 5 7 7 8 8 10 11 12 12 12 12 12
10 10 10 10 9 10 9 8 8 9 10 11 11 10 10 10 9 8 8 10 11 11 12 11 11 11 11 11 11 10 6 3 7 7 6 7 9 10 10 10 10 10 10
10 9 9 9 9 9 8 9 8 9 10 11 10 10 8 7 8 6 8 9 10 10 11 10 11 11 10 9 9 6 2 3 5 4 5 8 8 9 9 9 8 8 9
13 11 9 10 9 9 7 8 7 7 8 7 7 8 5 5 5 6 9 8 9 9 10 9 9 8 5 5 6 3 2 4 3 3 5 6 7 7 7 7 7 7 7
14 12 10 10 9 9 6 6 5 4 5 6 7 7 5 5 5 5 5 6 6 6 5 6 5 3 3 3 3 2 3 2 2 2 4 4 6 6 6 6 6 6 6
14 13 12 11 9 9 7 6 5 5 5 5 6 7 6 4 4 4 3 4 4 3 4 3 2 3 3 3 3 3 3 2 2 1 3 2 4 6 6 6 6 6 5
14 14 13 12 11 10 8 6 6 6 6 6 6 7 7 5 5 5 4 4 4 3 4 3 3 4 4 4 3 4 4 4 3 3 3 3 3 6 8 8 8 8 7
15 15 13 13 12 11 9 8 7 6 6 6 6 8 8 6 5 5 5 5 4 4 4 4 4 4 4 4 4 5 5 5 5 5 4 5 5 6 9 10 10 10 10
15 14 14 13 13 13 12 10 7 7 7 6 6 8 8 7 7 6 5 5 5 4 4 4 4 4 4 4 5 6 5 6 6 7 7 6 6 8 9 12 13 13 13
15 15 14 11 13 13 12 10 8 7 8 7 7 7 9 9 8 6 5 5 5 4 4 4 4 5 5 5 5 5 5 6 8 8 8 8 7 7 10 13 15 16 16
15 15 15 15 14 14 12 10 9 8 8 7 7 7 8 10 9 8 6 5 6 5 5 5 5 5 6 6 5 5 6 6 7 8 10 11 10 10 9 11 14 15 18
14 15 15 15 15 13 10 8 7 8 7 7 7 8 10 9 11 9 7 8 7 6 6 7 7 6 5 5 4 6 7 7 7 9 11 11 10 12 12 11 10 11 17
14 15 16 16 15 12 9 9 8 8 8 7 7 9 11 11 11 11 8 9 9 8 9 9 7 7 6 4 4 6 8 10 12 11 11 11 12 13 12 13 11 10 10
13 14 15 16 15 14 11 10 7 7 7 8 7 10 12 12 11 10 11 9 10 9 10 10 9 5 5 6 6 4 5 7 10 12 11 12 13 11 13 14 13 13 11
9 11 11 14 14 14 13 9 5 5 3 5 8 8 10 11 11 11 12 11 10 10 10 12 12 11 8 8 8 7 6 8 5 5 10 11 12 11 12 12 15 15 14
3 5 8 10 11 12 12 10 11 9 9 9 7 6 8 10 11 11 11 11 10 10 10 10 11 11 9 8 7 9 10 5 5 6 4 6 10 12 13 11 13 15 15
2 2 4 6 7 8 10 10 10 9 8 6 4 5 6 6 8 9 10 9 10 9 11 10 10 12 10 10 8 6 9 8 8 7 10 8 7 8 11 13 12 12 14
7 6 5 6 4 4 6 7 8 8 6 4 3 3 3 3 4 6 7 8 8 8 9 10 10 12 11 12 10 8 7 7 7 9 12 12 11 9 10 10 11 12 12
Wind_Direction
151 147 137 133 125 116 108 106 109 110 106 103 98 94 91 88 87 86 85 83 82 81 79 78 77 76 75 74 73 72 72 72 73 76 77 76 76 75 71 68 72 71 70
142 143 135 134 126 117 109 109 111 113 109 106 101 97 95 93 91 89 88 88 88 86 84 82 81 80 78 78 77 75 74 73 72 72 79 78 76 75 73 70 70 74 74
139 140 139 131 126 119 111 109 111 114 112 108 103 100 98 96 94 92 91 92 92 90 89 87 85 84 83 82 81 79 77 74 71 66 78 79 77 76 75 74 74 75 76
140 140 136 129 127 122 116 113 113 115 115 111 107 103 102 100 96 93 92 93 95 94 92 90 89 88 87 85 84 82 79 75 66 67 75 76 76 75 74 73 73 74 76
140 137 130 131 129 126 122 117 116 119 118 114 110 107 105 103 99 94 93 92 95 95 94 93 92 91 90 89 88 85 82 78 70 75 76 76 77 77 76 75 74 73 74
141 139 135 135 133 130 126 121 119 120 119 116 113 110 108 106 101 97 95 94 95 96 96 95 94 93 93 92 90 86 83 78 82 76 74 75 79 81 81 81 80 79 78
145 142 140 136 134 133 131 128 123 122 121 119 116 113 112 110 105 101 98 97 97 98 98 97 96 95 95 95 92 89 82 68 78 79 78 78 80 83 84 84 84 83 82
147 145 142 134 133 134 134 129 125 123 123 122 119 117 116 114 110 106 103 101 100 99 99 98 98 97 97 97 95 90 79 71 87 83 80 80 82 85 86 86 86 86 86
152 151 149 148 145 136 128 125 123 122 124 124 122 118 114 111 109 102 100 104 104 102 101 100 101 100 100 99 97 91 78 52 84 83 83 82 87 89 89 88 88 89 89
160 160 157 156 155 151 145 127 122 121 121 117 114 111 108 106 102 98 108 104 106 105 104 102 102 102 101 101 100 95 89 94 85 90 89 92 94 94 94 94 93 93 94
172 171 169 165 162 158 153 143 138 125 120 123 120 119 131 135 130 126 103 101 106 107 107 106 104 103 104 103 99 100 121 94 92 87 92 102 105 102 101 101 101 101 101
182 181 180 177 170 166 157 159 158 153 151 155 149 151 149 139 129 123 103 96 99 106 109 107 106 116 129 127 121 155 121 114 109 102 104 118 119 116 115 114 113 113 112
186 184 188 186 180 176 169 169 165 162 162 165 163 161 154 148 145 148 140 133 131 133 129 125 138 143 144 141 155 152 140 148 130 125 124 138 142 139 137 138 136 134 134
190 191 191 191 188 187 182 178 175 174 173 173 173 174 170 166 167 164 166 160 161 162 154 159 155 154 159 162 170 170 176 192 186 170 136 159 178 173 168 167 166 166 165
197 195 194 194 194 192 190 187 187 186 186 181 179 184 188 181 179 176 175 178 180 175 178 177 176 174 182 183 191 198 201 207 213 210 182 188 228 211 199 193 191 191 191
202 199 195 196 198 196 196 196 195 193 191 191 191 193 195 195 189 185 184 187 190 191 190 190 189 192 198 201 206 212 219 219 224 226 226 207 222 238 228 216 210 208 207
205 203 200 199 200 201 203 203 202 198 196 199 199 199 200 203 200 197 195 195 192 188 185 191 193 205 210 212 217 218 225 229 232 231 233 235 227 228 239 234 226 221 219
208 206 204 200 203 204 205 206 206 204 203 205 204 201 204 205 206 204 205 204 190 183 188 193 196 204 213 220 223 222 228 231 235 236 236 236 237 234 231 234 237 233 229
214 210 207 204 205 206 206 207 208 208 208 208 206 206 206 207 207 207 211 205 188 189 196 197 205 212 220 224 231 233 235 237 237 238 240 238 238 239 239 233 236 241 239
218 216 214 210 209 206 205 209 210 212 211 210 207 209 206 205 207 209 212 205 192 196 202 205 210 214 228 226 231 244 245 243 241 241 242 240 239 238 240 241 238 237 239
216 215 215 213 210 205 204 206 209 213 210 211 210 209 210 208 206 209 211 207 201 207 212 209 208 214 222 207 224 251 247 239 241 241 239 240 239 237 238 238 238 239 239
213 214 215 215 212 207 209 209 212 214 215 213 208 212 213 212 209 209 212 210 207 213 215 210 205 209 214 192 208 235 266 252 233 233 233 236 241 238 238 238 238 238 240
213 215 214 214 213 211 211 210 200 204 204 208 215 217 216 216 215 213 216 216 213 213 217 214 208 210 219 210 214 215 235 262 278 223 232 236 239 238 239 239 238 240 240
216 214 215 214 213 212 210 211 210 213 221 225 225 222 218 216 220 221 223 223 221 218 223 221 215 218 224 222 215 230 241 268 273 280 235 233 240 240 240 238 239 239 238
78 140 174 188 199 205 207 211 216 224 232 235 227 231 228 222 225 228 229 230 230 227 228 226 218 218 219 228 218 215 230 242 244 257 272 263 241 237 239 239 239 240 238
75 86 105 122 135 170 190 202 212 221 227 227 223 232 238 238 239 241 242 240 239 236 234 232 226 222 223 228 231 221 215 220 221 229 255 269 270 260 238 232 236 239 238